Regional Weather Roundup
Issued by NWS

Home | Current Version | Previous Version | Graphics & Text | Print | Product List | Glossary On
Versions: 1 2 3 4 5 6 7 8 9 10 11 12 13 14 15 16 17 18 19 20 21 22 23 24 25 26 27
000
ASUS45 KCYS 190510
RWRWY

WYOMING REGIONAL WEATHER ROUNDUP
NATIONAL WEATHER SERVICE CHEYENNE WY
1100 PM MDT MON SEP 18 2017

NOTE:  "FAIR" INDICATES FEW OR NO CLOUDS BELOW 12,000 FEET
WITH NO SIGNIFICANT WEATHER AND/OR OBSTRUCTIONS TO VISIBILITY.

WYZ001-190600-
YELLOWSTONE NATIONAL PARK

CITY           SKY/WX    TMP DP  RH WIND       PRES   REMARKS
LK YELLOWSTONE   N/A     37  36  96 CALM      29.88F
W YELLOWSTONE  NOT AVBL

$$
WYZ002>013-054>058-071-098>099-190600-
NORTHERN WYOMING

CITY           SKY/WX    TMP DP  RH WIND       PRES   REMARKS
JACKSON        CLOUDY    44  42  93 S7        29.87F
CODY           CLOUDY    56  38  50 W20G33    29.74S
GREYBULL       CLOUDY    63  42  46 NW9       29.64R
WORLAND        MOCLDY    57  45  64 S3        29.63R
SHERIDAN       FAIR      55  40  56 S3        29.58F
BUFFALO        FAIR      59  34  39 S10       29.65F
GILLETTE       FAIR      65  37  35 S15       29.64F
HULETT         FAIR      70  34  26 S14       29.66F
NEWCASTLE      FAIR      64  34  32 SE13G18   29.72F

$$
WYZ014>020-022>026-101>103-190600-
CENTRAL WYOMING

CITY           SKY/WX    TMP DP  RH WIND       PRES   REMARKS
BIG PINEY      LGT RAIN  48  44  86 N9        29.86F
PINEDALE       RAIN      45  43  93 W6        29.88F
DUBOIS         RAIN      39  36  87 NW10      29.87R WCI  32
LANDER           N/A    N/A N/A N/A MISG      29.71R
RIVERTON       FAIR      62  37  39 NW12G23   29.69F
CASPER         FAIR      60  33  36 CALM      29.73F
DOUGLAS        FAIR      59  31  34 S6        29.76F

$$
WYZ021-027>030-104>119-190600-
SOUTHERN WYOMING

CITY           SKY/WX    TMP DP  RH WIND       PRES   REMARKS
EVANSTON       LGT RAIN  51  45  79 W18       29.86S
KEMMERER         N/A     48  43  81 SW9       29.89S
FORT BRIDGER   CLOUDY    55  43  63 W18       29.87F
ROCK SPRINGS   FAIR      58  30  34 S13       29.83F
DIXON          FAIR      64  32  29 S18G28    29.92F
RAWLINS        FAIR      59  29  31 S17       29.86F
SARATOGA       FAIR      59  30  33 S16G22    29.91F
LARAMIE        FAIR      53  28  38 S12       29.93F
CHEYENNE       FAIR      57  30  35 SW6       29.89F
TORRINGTON     FAIR      57  45  64 E3        29.76
PINE BLUFFS    FAIR      63  34  34 SE21      29.85F

$$




USA.gov is the U.S. government's official web portal to all federal, state and local government web resources and services.